アトラス彗星

C/2023 F3 ( ATLAS )

English version
Home page
Updated on May 21, 2024

---------------------------------------------------------------------

・ プロフィール

発見日 2023年3月28日
発見光度 18.8等
発見者 Asteroid Terrestrial-Impact Last Alert System (ATLAS) search program

・ 写真集

・ 軌道要素

Epoch 2024 Mar. 31.0 TT = JDT 2460400.5
T 2025 Feb. 2.72228 TT                                  Rudenko
q   5.1906036            (2000.0)            P               Q
z  -0.0008299      Peri.  265.53449     -0.75305440     -0.39284846
 +/-0.0000047      Node   109.45241     -0.09779554     +0.86010742
e   1.0043074      Incl.  145.96095     -0.65064976     +0.32540025
>From 178 observations 2023 Mar. 28-2024 Mar. 19, mean residual 0".5.

・ 星図

・ 光度変化

        m1 = 5.5 + 5 logΔ + 10.0 log r

---------------------------------------------------------------------

軌道要素はM.P.E.C. 2024-F34に掲載されたものです。
星図はステラナビゲータ Ver.11 (アストロアーツ) で作成したものです。
光度グラフはComet for Windowsで作成したものです。

---------------------------------------------------------------------

Copyright(C) Seiichi Yoshida (comet@aerith.net). All rights reserved.